Location: Moscow
(55.7500°N, 37.5830°E)
Time: 08:42:26
(UTC+03:00)

N. Korean satellite - Pass Details

Date: 27 October 2021
Orbit: 446 x 495 km, 97.3° (Epoch: 04 December)

Event Time Altitude Azimuth Distance (km) Brightness Sun altitude
Rises 05:31:53 0° 18° (NNE) 2,602 10.5 -16.4°
Reaches altitude 10° 05:34:04 10° 26° (NNE) 1,711 9.7 -16.1°
Maximum altitude 05:37:35 42° 98° (E) 717 7.9 -15.6°
Drops below altitude 10° 05:41:03 10° 171° (S) 1,681 9.4 -15.1°
Sets 05:43:11 0° 178° (S) 2,550 10.3 -14.8°
